Watertown, WI

2:28 AM CDT on July 22, 2017 (GMT -0500)
Watertown Municipal

Weather History for KRYV - March, 2013

Change the Weather History Date:

Saturday, March 9, 2013

  Actual Average Record
Temperature  
Mean Temperature 34 °F -  
Max Temperature 40 °F 41 °F 71 °F (1987)
Min Temperature 29 °F 22 °F -5 °F (1975)
Degree Days  
Heating Degree Days 30    
Moisture  
Dew Point 29 °F    
Average Humidity 80    
Maximum Humidity 97    
Minimum Humidity 65    
Precipitation  
Precipitation 0.23 in - - ()
Sea Level Pressure  
Sea Level Pressure 30.02 in    
Wind  
Wind Speed 7 mph (SE)    
Max Wind Speed 13 mph    
Max Gust Speed 20 mph    
Visibility 9 miles    
Events Rain , Snow    
Averages and records for this station are not official NWS values.
T = Trace of Precipitation, MM = Missing Value Source: NWS Daily Summary

Daily Weather History Graph

Daily Weather History Graph

Search for Another Location

Airport or City:

Trip Planner

Search our weather history database for the weather conditions in past years. The results will help you decide how hot, cold, wet, or windy it might be!

Date:

Astronomy

Mar. 09, 2013 Rise Set
Actual Time 6:16 AM CST 5:54 PM CST
Civil Twilight 5:48 AM CST 6:22 PM CST
Nautical Twilight 5:15 AM CST 6:55 PM CST
Astronomical Twilight 4:42 AM CST 7:29 PM CST
Moon 4:43 AM CST (3/9) 3:54 PM CST (3/9)
Length of Visible Light 12h 34m
Length of Day
11h 37m
Waning Crescent, 5% of the Moon is Illuminated
Mar 9
Waning Crescent
Mar 11
New
Mar 19
First Quarter
Mar 27
Full
Apr 2
Last Quarter

Hourly Weather History & Observations

Time (CST) Temp. Windchill Dew Point Humidity Pressure Visibility Wind Dir Wind Speed Gust Speed Precip Events Conditions
12:15 AM 29.1 °F 23.0 °F 23.0 °F 78% 30.26 in 10.0 mi SE 5.8 mph - N/A   Clear
12:35 AM 29.7 °F 22.8 °F 23.0 °F 76% 30.26 in 10.0 mi SE 6.9 mph - N/A   Clear
12:55 AM 29.8 °F - 23.0 °F 76% 30.25 in 10.0 mi Calm Calm - N/A   Clear
1:15 AM 30.0 °F 24.1 °F 23.0 °F 75% 30.26 in 10.0 mi South 5.8 mph - N/A   Clear
1:35 AM 30.2 °F 23.4 °F 23.0 °F 75% 30.25 in 10.0 mi SSE 6.9 mph - N/A   Clear
1:55 AM 30.6 °F 22.4 °F 23.0 °F 74% 30.22 in 10.0 mi SE 9.2 mph - N/A   Clear
2:15 AM 30.4 °F 22.2 °F 23.0 °F 74% 30.21 in 10.0 mi SE 9.2 mph - N/A   Clear
2:35 AM 30.6 °F 27.1 °F 23.4 °F 75% 30.21 in 10.0 mi SSE 3.5 mph - N/A   Clear
2:55 AM 30.0 °F 21.1 °F 23.4 °F 76% 30.19 in 10.0 mi ESE 10.4 mph - N/A   Clear
3:15 AM 30.2 °F 21.3 °F 23.5 °F 76% 30.19 in 10.0 mi SE 10.4 mph - N/A   Clear
3:55 AM 30.6 °F 23.1 °F 23.9 °F 76% 30.17 in 10.0 mi SE 8.1 mph - N/A   Clear
4:15 AM 30.7 °F 24.1 °F 23.9 °F 76% 30.18 in 10.0 mi SSE 6.9 mph - N/A   Clear
4:35 AM 30.9 °F 23.5 °F 24.3 °F 76% 30.18 in 10.0 mi SE 8.1 mph - N/A   Mostly Cloudy
4:55 AM 31.1 °F 25.4 °F 24.3 °F 76% 30.17 in 10.0 mi SE 5.8 mph - N/A   Overcast
5:15 AM 31.5 °F 25.8 °F 24.6 °F 76% 30.17 in 10.0 mi SE 5.8 mph - N/A   Overcast
5:35 AM 31.6 °F 23.7 °F 24.8 °F 76% 30.16 in 10.0 mi SE 9.2 mph - N/A   Overcast
5:55 AM 31.6 °F 25.1 °F 24.8 °F 76% 30.16 in 10.0 mi SSE 6.9 mph - N/A   Overcast
6:15 AM 31.6 °F 24.4 °F 25.2 °F 77% 30.15 in 10.0 mi SE 8.1 mph - N/A   Overcast
6:35 AM 31.8 °F 25.4 °F 25.2 °F 76% 30.15 in 10.0 mi SE 6.9 mph - N/A   Overcast
6:55 AM 32.0 °F 26.4 °F 25.3 °F 76% 30.14 in 10.0 mi SE 5.8 mph - N/A   Overcast
7:35 AM 32.5 °F 27.1 °F 25.9 °F 76% 30.15 in 7.0 mi SSE 5.8 mph - N/A   Overcast
7:55 AM 33.4 °F 25.9 °F 26.8 °F 77% 30.15 in 5.0 mi SSE 9.2 mph - N/A Snow Light Snow
8:15 AM 33.3 °F 25.7 °F 28.4 °F 82% 30.14 in 4.0 mi SSE 9.2 mph - N/A Rain Light Rain
8:55 AM 33.4 °F 27.3 °F 30.7 °F 90% 30.12 in 5.0 mi SE 6.9 mph - 0.01 in   Light Drizzle
9:15 AM 33.8 °F 27.0 °F 31.3 °F 90% 30.11 in 5.0 mi SE 8.1 mph - 0.01 in   Light Drizzle
9:35 AM 34.2 °F 27.5 °F 31.6 °F 90% 30.10 in 7.0 mi SE 8.1 mph - 0.01 in   Overcast
9:55 AM 34.9 °F 28.3 °F 31.6 °F 88% 30.09 in 10.0 mi SSE 8.1 mph - 0.01 in   Overcast
10:15 AM 35.4 °F 28.4 °F 31.6 °F 86% 30.07 in 10.0 mi SE 9.2 mph - N/A   Overcast
10:35 AM 36.1 °F 28.2 °F 31.3 °F 83% 30.06 in 10.0 mi SSE 11.5 mph 16.1 mph N/A   Overcast
10:55 AM 36.5 °F 29.2 °F 31.5 °F 82% 30.05 in 10.0 mi SSE 10.4 mph - N/A   Overcast
11:15 AM 37.6 °F 31.0 °F 31.6 °F 79% 30.03 in 10.0 mi SE 9.2 mph - N/A   Overcast
11:35 AM 38.7 °F 31.4 °F 30.7 °F 73% 30.03 in 10.0 mi SSE 11.5 mph 18.4 mph N/A   Overcast
11:55 AM 38.8 °F 32.1 °F 30.0 °F 71% 30.02 in 10.0 mi SSE 10.4 mph - N/A   Overcast
12:15 PM 38.8 °F 32.1 °F 30.4 °F 72% 30.02 in 10.0 mi SSE 10.4 mph - N/A   Overcast
12:55 PM 40.1 °F 36.1 °F 30.0 °F 67% 30.00 in 10.0 mi South 5.8 mph - N/A   Overcast
1:15 PM 40.1 °F 33.2 °F 29.1 °F 65% 29.98 in 10.0 mi South 11.5 mph 19.6 mph N/A   Overcast
1:35 PM 40.1 °F 34.1 °F 29.3 °F 65% 29.97 in 10.0 mi South 9.2 mph 16.1 mph N/A   Overcast
1:55 PM 39.6 °F 32.1 °F 29.1 °F 66% 29.94 in 10.0 mi SSE 12.7 mph 17.3 mph N/A   Overcast
2:15 PM 39.6 °F 32.1 °F 29.1 °F 66% 29.94 in 10.0 mi SSE 12.7 mph 17.3 mph N/A   Overcast
3:15 PM 38.7 °F 32.9 °F 30.0 °F 71% 29.91 in 10.0 mi SE 8.1 mph - N/A   Light Drizzle
3:35 PM 38.5 °F 32.7 °F 30.2 °F 72% 29.91 in 10.0 mi SSE 8.1 mph - N/A   Drizzle
3:55 PM 37.8 °F 31.8 °F 31.1 °F 77% 29.90 in 10.0 mi SSE 8.1 mph - 0.01 in Rain Light Rain
4:35 PM 37.9 °F 31.5 °F 30.7 °F 75% 29.88 in 10.0 mi SE 9.2 mph - N/A   Overcast
4:55 PM 38.1 °F 31.7 °F 30.9 °F 75% 29.87 in 10.0 mi SE 9.2 mph - N/A   Drizzle
5:15 PM 37.2 °F 31.9 °F 31.8 °F 81% 29.87 in 10.0 mi ESE 6.9 mph - N/A Rain Light Rain
5:35 PM 36.0 °F 29.6 °F 32.0 °F 86% 29.86 in 4.0 mi ESE 8.1 mph - 0.02 in Rain Light Rain
5:55 PM 35.6 °F 31.7 °F 32.2 °F 87% 29.87 in 7.0 mi ESE 4.6 mph - 0.02 in   Light Drizzle
6:15 PM 35.6 °F 31.7 °F 32.4 °F 88% 29.87 in 5.0 mi ESE 4.6 mph - N/A   Drizzle
6:35 PM 35.1 °F 28.6 °F 32.4 °F 90% 29.85 in 10.0 mi ESE 8.1 mph - N/A   Overcast
6:55 PM 36.0 °F 29.0 °F 32.2 °F 86% 29.85 in 7.0 mi SE 9.2 mph - N/A Rain Light Rain
7:15 PM 36.1 °F 30.6 °F 32.0 °F 85% 29.85 in 10.0 mi SSE 6.9 mph - N/A   Overcast
7:35 PM 36.5 °F 31.8 °F 32.0 °F 84% 29.86 in 10.0 mi SSE 5.8 mph - N/A Rain Light Rain
8:15 PM 35.6 °F 31.7 °F 32.2 °F 87% 29.85 in 10.0 mi ESE 4.6 mph - N/A   Overcast
8:35 PM 35.6 °F 32.8 °F 32.2 °F 87% 29.86 in 7.0 mi South 3.5 mph - 0.01 in Rain Light Rain
8:55 PM 36.0 °F 33.3 °F 32.0 °F 86% 29.86 in 10.0 mi SSE 3.5 mph - 0.01 in   Light Drizzle
9:15 PM 35.6 °F 32.8 °F 32.2 °F 87% 29.85 in 3.0 mi SE 3.5 mph - 0.02 in Rain Rain
9:35 PM 35.1 °F - 32.9 °F 92% 29.85 in 4.0 mi Calm Calm - 0.06 in Rain Light Rain
9:55 PM 34.7 °F 31.8 °F 33.1 °F 94% 29.84 in 4.0 mi East 3.5 mph - 0.11 in Rain Rain
10:35 PM 34.7 °F 31.8 °F 33.8 °F 97% 29.84 in 3.0 mi ESE 3.5 mph - 0.04 in Rain Light Rain
10:55 PM 34.7 °F 31.8 °F 33.8 °F 97% 29.83 in 4.0 mi ESE 3.5 mph - 0.06 in Rain Light Rain
11:15 PM 34.7 °F 31.8 °F 33.8 °F 97% 29.81 in 5.0 mi SE 3.5 mph - N/A   Overcast
11:35 PM 35.1 °F 31.0 °F 33.4 °F 94% 29.80 in 7.0 mi ESE 4.6 mph - N/A   Overcast
11:55 PM 35.6 °F 31.7 °F 33.4 °F 92% 29.79 in 7.0 mi SE 4.6 mph - N/A   Overcast